Flag Weather past 2 weeks in Jersey City, New Jersey, U.S.A.

Now
50 °F

Passing clouds.


Feels Like: 46 °F
Forecast: 36 / 47 °F
Wind: 9 mph from West

Location: Newark International Airport

Current Time: Nov 25, 2014 at 9:11:01 PM

Latest Report: Nov 25, 2014 at 7:51 PM


Visibility: 10 mi

Pressure: 30.09 "Hg

Humidity: 48%

Dew point: 31 °F

Location of Jersey CityLocation

Historic Weather in Jersey City — Graph

°F

Jersey City temperature yesterday

Maximum temperature yesterday: 74 °F (at 2:51 PM)
Minimum temperature yesterday: 52 °F (at 2:51 AM)
Average temperature yesterday: 65 °F

Past Weeks' High & Low Weather Summary

 TemperatureHumidityPressure
High74 °F (Nov 24, 2:51 PM)100% (Nov 17, 11:04 AM)30.51 "Hg (Nov 17, 11:04 AM)
Low21 °F (Nov 19, 6:51 AM)26% (Nov 21, 2:51 PM)29.52 "Hg (Nov 17, 6:51 PM)
Average43 °F57%30.06 "Hg
* Reported Nov 10 7:51 PM — Nov 25 7:51 PM, Jersey City, Weather by CustomWeather, © 2014

Note: Actual official high and low records may vary slightly from our data, if they occured in-between our weather recording intervals... More about our weather records

Advertising

Jersey City weather history for previous 24 hours

 ConditionsComfort  
Time TempWeatherWind HumidityBarometerVisibility
7:51 PM
Nov 25
50 °FPassing clouds.9 mph48%30.09 "Hg10 mi
6:51 PM50 °FPartly cloudy.9 mph48%30.07 "Hg10 mi
5:51 PM49 °FPartly cloudy.7 mph50%30.04 "Hg10 mi
4:51 PM51 °FPartly cloudy.8 mph42%30.03 "Hg10 mi
3:51 PM53 °FBroken clouds.12 mph38%30.01 "Hg10 mi
2:51 PM54 °FBroken clouds.9 mph38%29.99 "Hg10 mi
1:51 PM54 °FMore clouds than sun.12 mph37%30.00 "Hg10 mi
12:51 PM54 °FMore clouds than sun.13 mph35%30.01 "Hg10 mi
11:51 AM55 °FMore clouds than sun.16 mph34%30.00 "Hg10 mi
10:51 AM55 °FMore clouds than sun.15 mph33%30.01 "Hg10 mi
9:51 AM56 °FMore clouds than sun.13 mph34%30.00 "Hg10 mi
8:51 AM57 °FMore clouds than sun.14 mph36%29.96 "Hg10 mi
7:51 AM58 °FCloudy.15 mph41%29.93 "Hg10 mi
6:51 AM62 °FPassing clouds.10 mph48%29.90 "Hg10 mi
5:51 AM62 °FPassing clouds.9 mph50%29.87 "Hg10 mi
4:51 AM62 °FPassing clouds.10 mph63%29.84 "Hg10 mi
3:51 AM63 °FHigh level clouds.8 mph68%29.80 "Hg10 mi
2:51 AM64 °FPassing clouds.9 mph72%29.77 "Hg10 mi
1:51 AM66 °FHigh level clouds.13 mph71%29.74 "Hg10 mi
12:51 AM67 °FPassing clouds.18 mph68%29.74 "Hg10 mi
11:51 PM
Nov 24
67 °FPassing clouds.18 mph68%29.73 "Hg10 mi
10:51 PM66 °FPassing clouds.14 mph72%29.72 "Hg10 mi
9:51 PM65 °FClear.12 mph70%29.72 "Hg10 mi
Weather by CustomWeather, © 2014

See weather overviewHow to use our weather pages